Station IOSN3 - Isle of Shoals, NH Image indicating link to RSS feed of recent meteorological observations for station IOSN3


Conditions at IOSN3 as of
(6:00 am EDT)
1000 GMT on 04/14/2024:
     

Click on the graph icon in the table below to see a time series plot of the last five days of that observation.

5-day plot - Wind Direction Wind Direction (WDIR): W ( 270 deg true )
5-day plot - Wind Speed Wind Speed (WSPD): 17 kts
5-day plot - Wind Gust Wind Gust (GST): 19 kts
5-day plot - Atmospheric Pressure Atmospheric Pressure (PRES):29.74 in
5-day plot - Pressure Tendency Pressure Tendency (PTDY):+0.07 in ( Rising )
5-day plot - Air Temperature Air Temperature (ATMP): 42.1 °F
5-day plot - Dew Point Dew Point (DEWP): 30.9 °F
5-day plot - Wind Chill Wind Chill (CHILL): 33.3 °F
5-day plot - Wind Speed at 10 Meters Wind Speed at 10 meters (WSPD10M): 16 kts
5-day plot - Wind Speed at 20 Meters Wind Speed at 20 meters (WSPD20M): 17 kts
5-day plot -  Wind Speed, Wind Gust and Atmospheric Pressure Combined plot of Wind Speed, Gust, and Air Pressure
Continuous Winds
TIME
(EDT)
5-day plot - Wind Direction WDIR 5-day plot - Wind Speed WSPD
6:00 amW ( 265 deg ) 18 kts
5:50 amW ( 266 deg ) 19 kts
5:40 amW ( 267 deg ) 17 kts
5:30 amW ( 269 deg ) 15 kts
5:20 amW ( 278 deg ) 13 kts
5:10 amW ( 280 deg ) 11 kts
 
Peak gust during the measurement hour
TIME
(EDT)
5-day plot - Gust Direction GDR 5-day plot - Gust Speed GST
5:40 amW ( 270 deg ) 22 kts
Previous observations
TIME
(EDT)
5-day plot - Wind Direction
WDIR
 
5-day plot - Wind Speed
WSPD
kts
5-day plot - Wind Gust
GST
kts
5-day plot - Wave Height
WVHT
ft
5-day plot - Dominant Wave Period
DPD
sec
5-day plot - Average Wave Period
APD
sec
5-day plot - Mean Wave Direction
MWD
 
5-day plot - Atmospheric Pressure
PRES
in
5-day plot - Pressure Tendency
PTDY
in
5-day plot - Air Temperature
ATMP
°F
5-day plot - Water Temperature
WTMP
°F
5-day plot - Dew Point
DEWP
°F
5-day plot - Salinity
SAL
psu
5-day plot - Visibility
VIS
nmi
5-day plot - Tide (above MLLW)
TIDE
ft
2024-04-14 05:00 am W 10 12----29.72+0.09 42.1- 29.7---
2024-04-14 04:00 am W 15 17----29.70+0.10 42.3- 27.1---
2024-04-14 03:00 am W 20 22----29.67+0.06 42.8- 26.2---
2024-04-14 02:00 amWNW 21 25----29.64+0.05 43.7- 25.7---
2024-04-14 01:00 am W 27 33----29.60+0.06 45.0- 27.1---
2024-04-14 12:00 am W 17 19----29.60+0.08 45.0- 29.8---
2024-04-13 11:00 pm W 17 19----29.58+0.10 45.7- 28.6---
2024-04-13 10:00 pm W 26 28----29.54+0.10 46.9- 25.7---
2024-04-13 09:00 pm W 20 22----29.52+0.12 47.5- 27.5---
2024-04-13 08:00 pm W 23 28----29.48+0.09 47.8- 27.7---
2024-04-13 07:00 pm W 25 28----29.44+0.07 48.4- 28.2---
2024-04-13 06:00 pmWNW 25 29----29.41+0.05 50.0- 27.7---
2024-04-13 05:00 pm W 21 23----29.39+0.02 51.6- 24.3---
2024-04-13 04:00 pm W 25 27----29.36-0.01 52.7- 21.4---
2024-04-13 03:00 pm W 18 20----29.36-0.03 51.6- 29.1---
2024-04-13 02:00 pm W 20 21----29.36-0.04 51.1- 31.3---
2024-04-13 01:00 pm SW 19 19----29.37-0.04 52.7- 30.2---
2024-04-13 12:00 pm S 13 13----29.39-0.03 49.5- 38.3---
2024-04-13 11:00 am S 18 18----29.40-0.03 46.4- 41.4---
2024-04-13 10:00 amSSE 17 18----29.41-0.03 45.5- 40.8---
2024-04-13 09:00 am S 20 21----29.42-0.01 45.5- 40.8---
2024-04-13 08:00 amSSE 20 21----29.43+0.00 44.8- 41.4---
2024-04-13 07:00 amSSE 18 19----29.44-0.01 44.4- 41.7---